Location: Newark
(37.9128°N, 122.4756°W)
Time: 16:53:17
(UTC+00:00)

ISS - Pass Details

Date: 26 November 2019
Orbit: 411 x 421 km, 51.6° (Epoch: 15 December)

Event Time Altitude Azimuth Distance (km) Brightness Sun altitude
Rises 01:52:08 0° 257° (WSW) 2,346 2.2 -11.7°
Reaches altitude 10° 01:54:26 10° 271° (W) 1,488 0.3 -12.2°
Maximum altitude 01:57:18 26° 330° (NNW) 863 -2.0 -12.7°
Enters shadow 01:59:41 13° 24° (NNE) 1,328 -1.6 -13.1°
